Change the Weather History Date:

Friday, June 28, 2013

  Actual Average Record
Temperature  
Mean Temperature 74 °F -  
Max Temperature 84 °F 85 °F 104 °F (1934)
Min Temperature 64 °F 63 °F 47 °F (1925)
Cooling Degree Days 9    
Growing Degree Days 24 (Base 50)    
Moisture  
Dew Point 63 °F    
Average Humidity 68    
Maximum Humidity 94    
Minimum Humidity 42    
Precipitation  
Precipitation 0.03 in - - ()
Sea Level Pressure  
Sea Level Pressure 29.70 in    
Wind  
Wind Speed 10 mph (WNW)    
Max Wind Speed 18 mph    
Max Gust Speed 40 mph    
Visibility 10 miles    
Events Rain , Thunderstorm    
Averages and records for this station are not official NWS values.
T = Trace of Precipitation, MM = Missing Value Source: NWS Daily Summary

Daily Weather History Graph

Daily Weather History Graph

Search for Another Location

Airport or City:

Trip Planner

Search our weather history database for the weather conditions in past years. The results will help you decide how hot, cold, wet, or windy it might be!

Date:

Astronomy

Jun. 28, 2013 Rise Set
Actual Time 5:25 AM CDT 8:30 PM CDT
Civil Twilight 4:51 AM CDT 9:03 PM CDT
Nautical Twilight 4:08 AM CDT 9:46 PM CDT
Astronomical Twilight 3:18 AM CDT 10:37 PM CDT
Moon 11:56 PM CDT (6/28) 11:35 AM CDT (6/28)
Length of Visible Light 16h 12m
Length of Day
15h 05m
Waning Gibbous, 66% of the Moon is Illuminated
Jun 28
Waning Gibbous
Jun 29
Last Quarter
Jul 8
New
Jul 15
First Quarter
Jul 22
Full

Hourly Weather History & Observations

Time (CDT) Temp. Heat Index Dew Point Humidity Pressure Visibility Wind Dir Wind Speed Gust Speed Precip Events Conditions
12:15 AM 73.4 °F - 62.6 °F 69% 29.77 in 10.0 mi WNW 9.2 mph - N/A   Clear
12:35 AM 73.4 °F - 62.6 °F 69% 29.77 in 10.0 mi West 8.1 mph - N/A   Clear
12:55 AM 71.6 °F - 62.6 °F 73% 29.77 in 10.0 mi West 9.2 mph - N/A   Clear
1:35 AM 71.6 °F - 62.6 °F 73% 29.75 in 10.0 mi WNW 9.2 mph - N/A   Clear
1:55 AM 71.6 °F - 62.6 °F 73% 29.75 in 10.0 mi WNW 8.1 mph - N/A   Clear
2:15 AM 69.8 °F - 62.6 °F 78% 29.75 in 10.0 mi West 6.9 mph - N/A   Clear
2:35 AM 69.8 °F - 62.6 °F 78% 29.74 in 10.0 mi West 5.8 mph - N/A   Clear
2:55 AM 69.8 °F - 62.6 °F 78% 29.74 in 10.0 mi WNW 6.9 mph - N/A   Clear
3:15 AM 68.0 °F - 62.6 °F 83% 29.73 in 10.0 mi WNW 8.1 mph - N/A   Clear
3:35 AM 68.0 °F - 62.6 °F 83% 29.73 in 10.0 mi WNW 6.9 mph - N/A   Clear
3:55 AM 66.2 °F - 62.6 °F 88% 29.73 in 10.0 mi WNW 8.1 mph - N/A   Clear
4:15 AM 66.2 °F - 62.6 °F 88% 29.73 in 10.0 mi WNW 6.9 mph - N/A   Clear
4:35 AM 66.2 °F - 62.6 °F 88% 29.73 in 10.0 mi WNW 5.8 mph - N/A   Clear
4:55 AM 66.2 °F - 62.6 °F 88% 29.73 in 10.0 mi West 4.6 mph - N/A   Clear
5:15 AM 64.4 °F - 62.6 °F 94% 29.73 in 10.0 mi West 5.8 mph - N/A   Clear
5:35 AM 64.4 °F - 62.6 °F 94% 29.74 in 10.0 mi West 4.6 mph - N/A   Clear
5:55 AM 64.4 °F - 62.6 °F 94% 29.74 in 10.0 mi West 5.8 mph - N/A   Clear
6:15 AM 66.2 °F - 62.6 °F 88% 29.74 in 10.0 mi West 5.8 mph - N/A   Clear
6:35 AM 66.2 °F - 62.6 °F 88% 29.74 in 10.0 mi West 5.8 mph - N/A   Clear
6:55 AM 69.8 °F - 62.6 °F 78% 29.74 in 10.0 mi West 4.6 mph - N/A   Clear
7:55 AM 71.6 °F - 64.4 °F 78% 29.74 in 10.0 mi West 10.4 mph - N/A   Scattered Clouds
8:15 AM 73.4 °F - 64.4 °F 73% 29.74 in 10.0 mi West 9.2 mph - N/A   Clear
8:35 AM 75.2 °F - 62.6 °F 65% 29.73 in 10.0 mi WNW 9.2 mph - N/A   Clear
8:55 AM 77.0 °F - 62.6 °F 61% 29.72 in 10.0 mi West 6.9 mph - N/A   Clear
9:15 AM 78.8 °F - 64.4 °F 61% 29.72 in 10.0 mi West 13.8 mph - N/A   Clear
9:35 AM 78.8 °F - 64.4 °F 61% 29.72 in 10.0 mi WNW 12.7 mph 17.3 mph N/A   Clear
9:55 AM 78.8 °F - 64.4 °F 61% 29.72 in 10.0 mi WNW 15.0 mph - N/A   Clear
10:15 AM 78.8 °F - 64.4 °F 61% 29.72 in 10.0 mi WNW 12.7 mph 18.4 mph N/A   Clear
10:35 AM 80.6 °F 82.3 °F 64.4 °F 58% 29.72 in 10.0 mi NW 13.8 mph 17.3 mph N/A   Clear
10:55 AM 80.6 °F 82.3 °F 64.4 °F 58% 29.72 in 10.0 mi NW 11.5 mph 20.7 mph N/A   Unknown
11:15 AM 80.6 °F 81.8 °F 62.6 °F 54% 29.72 in 10.0 mi North 13.8 mph - N/A   Unknown
11:35 AM 80.6 °F 82.3 °F 64.4 °F 58% 29.72 in 10.0 mi NNW 11.5 mph - N/A   Clear
11:55 AM 80.6 °F 81.8 °F 62.6 °F 54% 29.71 in 10.0 mi NW 11.5 mph 17.3 mph N/A   Clear
12:15 PM 82.4 °F 83.9 °F 64.4 °F 54% 29.71 in 10.0 mi NW 12.7 mph 17.3 mph N/A   Clear
12:35 PM 82.4 °F 83.4 °F 62.6 °F 51% 29.70 in 10.0 mi WNW 17.3 mph 21.9 mph N/A   Scattered Clouds
12:55 PM 82.4 °F 83.4 °F 62.6 °F 51% 29.70 in 10.0 mi WNW 17.3 mph - N/A   Scattered Clouds
1:15 PM 82.4 °F 82.9 °F 60.8 °F 48% 29.70 in 10.0 mi NW 12.7 mph 18.4 mph N/A   Scattered Clouds
1:35 PM 82.4 °F 82.9 °F 60.8 °F 48% 29.70 in 10.0 mi WNW 17.3 mph 23.0 mph N/A   Scattered Clouds
1:55 PM 82.4 °F 82.9 °F 60.8 °F 48% 29.69 in 10.0 mi WNW 18.4 mph 25.3 mph N/A   Clear
2:15 PM 82.4 °F 82.0 °F 57.2 °F 42% 29.68 in 10.0 mi NW 18.4 mph 24.2 mph N/A   Clear
2:35 PM 82.4 °F 82.5 °F 59.0 °F 45% 29.68 in 10.0 mi WNW 15.0 mph 23.0 mph N/A   Clear
2:55 PM 84.2 °F 83.8 °F 59.0 °F 42% 29.67 in 10.0 mi WNW 17.3 mph 21.9 mph N/A   Scattered Clouds
3:15 PM 82.4 °F 82.0 °F 57.2 °F 42% 29.66 in 10.0 mi WNW 18.4 mph - N/A   Clear
3:35 PM 82.4 °F 82.5 °F 59.0 °F 45% 29.66 in 10.0 mi West 16.1 mph 24.2 mph N/A   Scattered Clouds
3:55 PM 80.6 °F 81.5 °F 60.8 °F 51% 29.65 in 10.0 mi WNW 17.3 mph 21.9 mph N/A   Scattered Clouds
4:15 PM 82.4 °F 82.9 °F 60.8 °F 48% 29.65 in 10.0 mi WNW 18.4 mph - N/A   Scattered Clouds
4:35 PM 80.6 °F 81.1 °F 59.0 °F 48% 29.64 in 10.0 mi WNW 13.8 mph 23.0 mph N/A   Scattered Clouds
4:55 PM 71.6 °F - 62.6 °F 73% 29.66 in 5.0 mi NW 11.5 mph 40.3 mph 0.03 in Rain Heavy Rain
5:15 PM 73.4 °F - 64.4 °F 73% 29.65 in 10.0 mi NW 4.6 mph - N/A   Scattered Clouds
5:35 PM 75.2 °F - 66.2 °F 73% 29.66 in 10.0 mi WNW 8.1 mph - N/A Thunderstorm Mostly Cloudy
5:55 PM 75.2 °F - 66.2 °F 73% 29.65 in 10.0 mi WNW 4.6 mph - N/A Thunderstorm Mostly Cloudy
6:15 PM 77.0 °F - 64.4 °F 65% 29.65 in 10.0 mi NNW 11.5 mph - N/A Thunderstorm Mostly Cloudy
6:35 PM 75.2 °F - 64.4 °F 69% 29.65 in 10.0 mi North 10.4 mph - N/A   Scattered Clouds
6:55 PM 77.0 °F - 64.4 °F 65% 29.65 in 10.0 mi NNW 5.8 mph - N/A   Scattered Clouds
7:15 PM 75.2 °F - 62.6 °F 65% 29.65 in 10.0 mi NW 10.4 mph 16.1 mph N/A   Scattered Clouds
7:35 PM 75.2 °F - 62.6 °F 65% 29.65 in 10.0 mi NW 18.4 mph 24.2 mph N/A   Scattered Clouds
7:55 PM 75.2 °F - 60.8 °F 61% 29.66 in 10.0 mi NW 13.8 mph 19.6 mph N/A   Scattered Clouds
8:15 PM 75.2 °F - 62.6 °F 65% 29.66 in 10.0 mi NW 11.5 mph 17.3 mph N/A   Clear
8:35 PM 73.4 °F - 62.6 °F 69% 29.66 in 10.0 mi NW 8.1 mph - N/A   Mostly Cloudy
8:55 PM 73.4 °F - 62.6 °F 69% 29.66 in 10.0 mi NW 11.5 mph 18.4 mph N/A   Mostly Cloudy
9:15 PM 73.4 °F - 60.8 °F 65% 29.66 in 10.0 mi NW 11.5 mph - N/A   Scattered Clouds
9:35 PM 71.6 °F - 62.6 °F 73% 29.66 in 10.0 mi NW 5.8 mph - N/A   Clear
9:55 PM 71.6 °F - 62.6 °F 73% 29.66 in 10.0 mi WNW 4.6 mph - N/A   Mostly Cloudy
10:15 PM 71.6 °F - 62.6 °F 73% 29.66 in 10.0 mi WNW 8.1 mph - N/A   Scattered Clouds
10:35 PM 71.6 °F - 62.6 °F 73% 29.66 in 10.0 mi NW 9.2 mph - N/A   Scattered Clouds
10:55 PM 69.8 °F - 64.4 °F 83% 29.66 in 10.0 mi NNW 4.6 mph - N/A   Mostly Cloudy
11:15 PM 69.8 °F - 64.4 °F 83% 29.66 in 10.0 mi NNW 4.6 mph - N/A   Mostly Cloudy
11:35 PM 69.8 °F - 64.4 °F 83% 29.65 in 10.0 mi Calm Calm - N/A   Scattered Clouds
11:55 PM 68.0 °F - 64.4 °F 88% 29.65 in 10.0 mi NW 5.8 mph - N/A   Scattered Clouds